Meteo Giornale » Osservazioni meteo Austria » Vienna-Schwechat

ore: 02:20 - Osservazioni Meteo Vienna-Schwechat
Lat. 48° 7' N Lon. 16° 34' E Alt. 183 metri s.l.m.

molto_nuvoloso Europe/Vienna

12 °C

Molto Nuvoloso

Temp. 24 Ore

11 °C

15 °C

Nord

3.7 Km/h

Dew point 11 °C

Umidità 93 %

Visibilità  10 Km

Il sole sorge alle ore 06:43

Il sole tramonta alle ore 18:46

Data e Ora Cielo e Fenomeni T °C DP °C Um. % Pres. hPa Vis. km Vento km/h
Oggi h: 02:20 molto_nuvoloso Molto Nuvoloso 12 11 93 1021 10 N 3.7
Oggi h: 01:50 molto_nuvoloso Molto Nuvoloso 12 11 93 1021 10 N 3.7
Oggi h: 01:20 molto_nuvoloso Molto Nuvoloso 12 11 93 1021 10 N 3.7
Oggi h: 00:50 molto_nuvoloso Molto Nuvoloso 12 11 93 1022 10 N 3.7
Oggi h: 00:20 molto_nuvoloso Molto Nuvoloso 12 11 93 1022 10 N 5.5
Ieri h: 23:50 molto_nuvoloso Molto Nuvoloso 11 11 100 1022 10 S 7.4
Ieri h: 23:20 molto_nuvoloso Molto Nuvoloso 11 11 100 1022 10 N 1.8
Ieri h: 22:50 molto_nuvoloso Molto Nuvoloso 11 11 100 1022 10 N 1.8
Ieri h: 22:20 molto_nuvoloso Molto Nuvoloso 12 11 93 1022 10 N 1.8
Ieri h: 21:50 molto_nuvoloso Molto Nuvoloso 12 11 93 1022 10 N 1.8
Ieri h: 21:20 molto_nuvoloso Molto Nuvoloso 12 11 93 1022 10 N 0
Ieri h: 20:50 molto_nuvoloso Molto Nuvoloso 12 11 93 1022 10 N 1.8
Ieri h: 20:20 molto_nuvoloso Molto Nuvoloso 12 11 93 1022 10 N 1.8
Ieri h: 19:50 molto_nuvoloso Molto Nuvoloso 13 11 87 1022 10 N 5.5
Ieri h: 19:20 molto_nuvoloso Molto Nuvoloso 13 11 87 1021 10 N 3.7
Ieri h: 18:50 molto_nuvoloso Molto Nuvoloso 13 11 87 1021 10 N 5.5
Ieri h: 17:50 molto_nuvoloso Molto Nuvoloso 14 11 82 1021 10 N 5.5
Ieri h: 17:20 molto_nuvoloso Molto Nuvoloso 14 11 82 1021 10 N 5.5
Ieri h: 16:50 molto_nuvoloso Molto Nuvoloso 14 11 82 1021 10 N/NE 11.1
Ieri h: 16:20 molto_nuvoloso Molto Nuvoloso 14 11 82 1021 10 N/NE 11.1
Ieri h: 15:50 molto_nuvoloso Molto Nuvoloso 15 11 76 1021 10 N/NE 11.1
Ieri h: 15:20 molto_nuvoloso Molto Nuvoloso 15 11 76 1021 10 N 11.1
Ieri h: 14:50 molto_nuvoloso Molto Nuvoloso 15 10 72 1021 10 N 13
Ieri h: 14:20 molto_nuvoloso Molto Nuvoloso 15 10 72 1021 10 N/NO 18.5
Ieri h: 13:50 molto_nuvoloso Molto Nuvoloso 15 10 72 1021 10 N 18.5
Ieri h: 13:20 molto_nuvoloso Molto Nuvoloso 15 10 72 1021 10 N 13
Ieri h: 12:50 molto_nuvoloso Molto Nuvoloso 15 10 72 1021 10 N/NO 13
Ieri h: 12:20 molto_nuvoloso Molto Nuvoloso 14 10 76 1021 10 NO 13
Ieri h: 11:50 molto_nuvoloso Molto Nuvoloso 14 10 76 1021 10 N/NO 13
Ieri h: 11:20 molto_nuvoloso Molto Nuvoloso 14 10 76 1021 10 N/NO 13
Ieri h: 10:50 molto_nuvoloso Molto Nuvoloso 14 10 76 1021 10 N/NO 11.1
Ieri h: 10:20 molto_nuvoloso Molto Nuvoloso 13 10 81 1021 10 NO 11.1
Ieri h: 09:50 molto_nuvoloso Molto Nuvoloso 13 10 81 1021 10 N/NO 9.3
Ieri h: 09:20 molto_nuvoloso Molto Nuvoloso 13 10 81 1021 10 NO 9.3
Ieri h: 08:50 molto_nuvoloso Molto Nuvoloso 12 10 87 1021 10 N 5.5
Ieri h: 08:20 molto_nuvoloso Molto Nuvoloso 12 10 87 1020 10 N 3.7
Ieri h: 07:50 molto_nuvoloso Molto Nuvoloso 12 10 87 1020 10 N/NO 9.3
Ieri h: 07:20 molto_nuvoloso Molto Nuvoloso 12 9 81 1020 10 NO 9.3
Ieri h: 06:50 sereno Sereno 11 9 87 1020 10 NO 9.3
Ieri h: 06:20 sereno Sereno 12 10 87 1020 10 NO 9.3
Ieri h: 05:50 sereno Sereno 11 10 93 1020 10 NO 9.3
Ieri h: 05:20 molto_nuvoloso Molto Nuvoloso 11 9 87 1020 10 NO 7.4
Ieri h: 04:50 sereno Sereno 11 9 87 1020 10 NO 7.4
Ieri h: 04:20 sereno Sereno 12 9 81 1020 10 N 5.5
Ieri h: 03:50 sereno Sereno 12 9 81 1020 10 O 7.4
Ieri h: 03:20 sereno Sereno 12 9 81 1020 10 NO 7.4
Ieri h: 02:50 sereno Sereno 12 10 87 1020 10 NO 9.3